Location: Punxsutawney
(40.9447°N, 78.9903°W)
Time: 05:38:36
(UTC-05:00)

Daily predictions for brighter satellites

Satellite Brightness Start Highest point End
(mag) Time Altitude Azimuth Time Altitude Azimuth Time Altitude Azimuth
Cosmos 1980 Rocket 3.8 03:53:47 28° NE 03:54:53 30° NE 03:59:48 10° ESE
Cosmos 2369 4.3 04:17:08 49° SE 04:17:08 49° SE 04:21:16 10° SSE
CZ-4C R/B 4.4 04:28:13 14° N 04:28:13 14° N 04:29:53 10° N
Meteor 1-27 4.4 04:28:11 40° N 04:30:25 76° E 04:36:15 10° SSE
Cosmos 2123 Rocket 3.9 04:34:50 70° SW 04:34:50 70° SW 04:40:27 10° S
CZ-3B R/B 4.5 04:33:49 10° SSE 04:34:43 11° SSE 04:35:59 10° SE
SJ 16-02 2.8 04:31:03 10° SSE 04:35:02 35° E 04:39:02 10° NE
Cosmos 1697 Rocket 2.8 04:36:07 60° S 04:36:07 60° S 04:40:41 10° SSE
Cosmos 2278 3.6 04:34:56 75° N 04:35:26 85° ENE 04:41:08 10° SSE
Cosmos 923 Rocket 4.0 04:35:33 77° NE 04:35:40 77° ENE 04:40:54 10° SSE
Lacrosse 5 2.5 04:42:49 43° N 04:42:49 43° N 04:46:36 10° NE
Cosmos 1605 Rocket 3.8 04:39:13 10° S 04:45:26 82° W 04:51:37 10° N
H-2A R/B 4.5 04:44:03 10° N 04:45:33 21° N 04:45:33 21° N
CZ-2C R/B 2.2 04:44:12 10° NNE 04:49:07 89° W 04:50:04 58° SSW
ASTEX 1 3.6 04:44:39 10° SSE 04:49:33 71° E 04:54:31 10° N
MSX 3.8 04:46:10 10° N 04:51:24 56° NW 04:51:24 56° NW
NOSS 3-3 (A) 3.9 04:51:12 25° SSW 04:54:49 77° ESE 05:01:17 10° NE
NOSS 3-3 (C) 4.0 04:51:15 24° SSW 04:54:55 77° ESE 05:01:23 10° NE
Cosmos 1898 Rocket 3.7 04:50:03 10° S 04:55:14 72° ESE 05:00:30 10° NNE
Okean O Rocket 4.3 04:54:04 10° NE 04:57:14 20° E 05:00:25 10° SE
Cosmos 2082 Rocket 2.3 04:57:46 51° NW 04:57:46 51° NW 05:03:09 10° NNE
STARLINK-43 4.2 05:00:52 42° NNE 05:00:52 42° NNE 05:03:32 10° NE
CZ-4B R/B 4.0 04:57:44 10° N 05:02:15 85° WNW 05:06:43 10° SSW
OAO 3 Rocket 4.1 05:05:46 32° SSW 05:07:04 38° S 05:11:29 10° ESE
Cosmos 1937 Rocket 3.8 05:02:17 10° S 05:07:22 66° ESE 05:12:28 10° NNE
Cosmos 1833 Rocket 3.9 05:17:39 24° NW 05:17:39 24° NW 05:21:05 10° N
SKYMED 2 4.0 05:16:19 10° SSE 05:20:36 63° ENE 05:24:54 10° N
Cosmos 2058 2.9 05:17:46 10° SSW 05:21:55 59° W 05:26:05 10° N
Cosmos 858 Rocket 4.4 05:17:10 10° SSW 05:22:20 87° WNW 05:27:34 10° NNE
ALOS 3.2 05:21:09 10° NNE 05:25:42 50° E 05:30:13 10° S
Meteor PRIRODA 3.5 05:23:59 10° N 05:27:38 62° WNW 05:31:13 10° SSW
ATLAS 2AS CENTAUR R/B 3.7 05:20:58 10° NNW 05:28:23 48° NE 05:35:11 10° ESE
CZ-4B R/B 4.3 05:26:42 10° N 05:28:03 20° NNW 05:28:03 20° NNW
OAO 2 Rocket 4.1 05:27:37 25° WSW 05:30:10 43° S 05:34:56 10° ESE
COBE Rocket 3.9 05:25:19 10° S 05:30:26 64° W 05:35:31 10° NNW
Cosmos 1459 Rocket 4.0 05:24:32 10° S 05:30:41 84° E 05:36:59 10° N
Cosmos 1076 Rocket 4.1 05:31:48 34° WNW 05:31:48 34° WNW 05:35:41 10° N
SL-16 R/B 3.0 05:26:19 10° NNW 05:31:52 52° ENE 05:37:23 10° SE
Cosmos 1151 Rocket 4.4 05:28:26 10° N 05:32:35 40° ENE 05:36:41 10° SSE
Cosmos 2360 Rocket 4.2 05:28:16 10° N 05:32:54 25° NE 05:37:29 10° ESE
Cosmos 2016 Rocket 4.5 05:30:09 10° S 05:36:16 64° E 05:42:31 10° NNE
SL-4 R/B 3.8 05:33:51 18° NNW 05:36:31 28° NNE 05:40:41 10° ENE
SL-27 R/B 3.8 05:38:00 21° NNW 05:38:00 21° NNW 05:39:33 10° N
Cosmos 1980 Rocket 2.6 05:35:38 21° NW 05:38:59 41° WSW 05:44:15 10° S
COSMOS 2487 4.5 05:36:07 10° SSE 05:39:11 30° ESE 05:42:16 10° NE
Cosmos 1356 Rocket 3.9 05:36:54 21° NW 05:39:16 40° W 05:43:16 10° SSW
Meteor 1-31 Rocket 4.2 05:38:10 10° NNW 05:40:01 21° NW 05:40:01 21° NW
Cosmos 2322 Rocket 2.9 05:36:41 10° NNW 05:42:15 54° ENE 05:47:48 10° SE
Cosmos 1408 3.1 05:40:19 10° S 05:43:58 63° E 05:47:37 10° NNE
SJ-12 3.8 05:41:54 10° N 05:46:04 74° WNW 05:50:10 10° SSW
Cosmos 1484 Rocket 3.0 05:44:28 10° N 05:48:19 48° WNW 05:52:10 10° SSW
Cosmos 1408 Rocket 3.7 05:44:34 10° S 05:48:50 73° E 05:53:09 10° NNE
Cosmos 1892 2.8 05:47:09 10° SSW 05:50:48 47° W 05:54:29 10° N
Cosmos 2298 Rocket 4.3 05:45:59 10° S 05:51:16 73° ESE 05:56:34 10° NNE
STARLINK-40 4.5 05:47:22 10° SSW 05:51:22 51° SE 05:55:24 10° ENE
Cosmos 1869 4.2 05:51:09 22° WNW 05:52:23 26° W 05:55:40 10° SSW
Cosmos 1680 Rocket 4.4 05:50:11 18° NW 05:52:57 28° W 05:57:24 10° SSW
STARLINK-44 4.4 05:49:02 10° SSW 05:53:04 53° SE 05:57:06 10° ENE
Cosmos 2100 Rocket 4.0 05:47:14 10° SSW 05:53:20 60° W 05:59:27 10° N
STARLINK-36 4.3 05:50:41 10° SW 05:54:43 55° SE 05:58:46 10° ENE
Cosmos 1437 4.4 05:53:48 10° SSE 05:56:36 35° E 05:59:26 10° NNE
Cosmos 372 Rocket 4.3 05:51:43 10° S 05:56:52 72° ESE 06:01:59 10° NNE
Okean 3 Rocket 3.9 05:53:00 10° SSW 05:57:18 43° WNW 06:01:36 10° N
Shenzhou-11 Module 1.8 05:56:36 27° WNW 05:57:51 64° N 06:00:32 10° E
STARLINK-35 4.1 05:57:14 10° SW 06:01:19 63° SE 06:05:25 10° ENE
Cosmos 1766 Rocket 3.7 05:57:19 10° SSW 06:01:30 49° W 06:05:43 10° N
STARLINK-80 4.2 05:59:22 19° W 06:01:34 35° NNW 06:05:07 10° NE
Cosmos 158 Rocket 4.3 05:57:42 10° NW 06:02:18 39° WSW 06:06:48 10° S
STARLINK-51 4.0 05:58:54 10° SW 06:02:59 65° SE 06:07:06 10° ENE
STARLINK-30 4.0 06:00:33 10° SW 06:04:39 67° SE 06:08:46 10° NE
STARLINK-33 3.9 06:02:12 10° SW 06:06:18 70° SE 06:10:26 10° NE
Cosmos 1802 Rocket 4.1 06:00:43 10° SSW 06:07:04 63° W 06:13:27 10° N
STARLINK-50 3.9 06:03:51 10° SW 06:07:58 72° SE 06:12:06 10° NE
COSMO-SKYMED 1 3.1 06:04:38 10° SSW 06:08:38 37° W 06:12:41 10° NNW
Gbstr 26 Del rocket 3.8 06:07:28 16° WNW 06:09:46 27° NNW 06:13:00 10° NE
STARLINK-56 3.8 06:07:09 10° SW 06:11:16 77° SE 06:15:25 10° NE
Abrixas rocket 2.9 06:08:38 10° SW 06:11:33 48° SE 06:14:28 10° ENE
CZ-4B R/B 3.1 06:07:16 10° N 06:12:39 75° WNW 06:18:06 10° SSW
Starlink (trailer) 3.7 06:08:55 10° SW 06:13:03 80° SE 06:17:12 10° NE
ATLAS CENTAUR R/B 1.8 06:08:10 10° SSW 06:13:06 88° ESE 06:17:57 10° NNE
SJ 16-02 2.6 06:10:24 10° WSW 06:13:43 21° WNW 06:17:02 10° NNW
STARLINK-38 3.7 06:10:26 10° SW 06:14:34 82° SE 06:18:43 10° NE
Cosmos 1825 2.0 06:11:25 10° SSW 06:15:09 71° W 06:18:55 10° N
Cosmos 2151 3.7 06:11:51 10° SW 06:15:41 31° WNW 06:19:34 10° NNW
STARLINK-65 3.7 06:12:08 10° SW 06:16:16 85° SE 06:20:26 10° NE
Cosmos 2061 Rocket 4.1 06:11:40 10° SSW 06:17:48 58° W 06:23:56 10° N
FENGYUN 3A 3.7 06:13:05 10° N 06:18:24 56° WNW 06:23:39 10° SSW
STARLINK-48 4.3 06:17:16 10° W 06:20:45 33° NNW 06:24:19 10° NE
STARLINK-69 3.6 06:17:08 10° SW 06:21:16 86° NW 06:25:26 10° NE
H-2A R/B 4.0 06:17:49 10° NNE 06:21:24 45° E 06:24:57 10° S
STARLINK-26 3.5 06:17:20 10° SW 06:21:25 78° NW 06:25:32 10° NE
PAYLOAD B 4.5 06:16:26 10° N 06:21:41 47° WNW 06:26:53 10° SW
STARLINK-66 3.6 06:18:47 10° SW 06:22:56 85° NW 06:27:05 10° NE
STARLINK-41 3.6 06:20:25 10° SW 06:24:33 83° NW 06:28:43 10° NE
Cosmos 2219 Rocket 4.3 06:21:10 10° N 06:25:33 23° NE 06:29:56 10° ESE
Lacrosse 5 3.5 06:22:12 10° WNW 06:25:35 17° NNW 06:28:58 10° NNE
STARLINK-64 3.6 06:22:04 10° SW 06:26:12 80° NW 06:30:21 10° NE
CZ-2C R/B 4.2 06:25:30 10° NW 06:26:30 11° WNW 06:27:29 10° WNW
STARLINK-70 3.6 06:23:45 10° SW 06:27:54 78° NW 06:32:03 10° NE
METEOR-M 4.5 06:23:08 10° N 06:28:09 43° WNW 06:33:09 10° SW
STARLINK-68 3.6 06:25:30 10° WSW 06:29:38 72° NW 06:33:47 10° NE
STARLINK-61 3.8 06:26:12 10° WSW 06:30:07 50° NNW 06:34:03 10° NE
STARLINK-58 3.6 06:26:58 10° WSW 06:31:06 73° NW 06:35:15 10° NE
Cosmos 1933 3.3 06:27:15 10° N 06:31:17 77° W 06:35:16 10° S
COSMOS 2455 3.1 06:26:18 10° NW 06:32:08 53° WSW 06:37:55 10° S
Cosmos 2228 Rocket 3.3 06:27:58 10° N 06:32:34 81° E 06:37:09 10° S
STARLINK-62 3.6 06:28:51 10° WSW 06:32:57 69° NW 06:37:06 10° NE
Okean O Rocket 2.1 06:29:43 10° N 06:33:41 36° WNW 06:37:39 10° SW
STARLINK-63 3.6 06:30:25 10° WSW 06:34:32 69° NW 06:38:40 10° NE
STARLINK 3.6 06:31:51 10° WSW 06:35:58 73° NW 06:40:07 10° NE
Cosmos 1238 Rocket 4.1 06:32:23 10° S 06:39:04 83° W 06:45:21 10° N
NOSS 3-4 (A) 4.0 06:32:10 10° NW 06:39:19 90° WSW 06:47:08 10° SSE
NOSS 3-4 (C) 4.0 06:32:17 10° NW 06:39:25 89° NE 06:47:14 10° SSE
